User: anonymous   Login
Location: Maiden
(35.5760°N, 81.2120°W)
Time: 09:55:41
(UTC-04:00)
Language:

Cosmos 2151 - Orbit

View from above orbital plane
View from above orbital plane
View from above satellite
View from above satellite

Ground track
Ground track

The orbit data is extracted from the following two-line orbital elements,

1 21422U 91042A   17085.89910047 +.00000273 +00000-0 +24536-4 0  9992
2 21422 082.5011 324.7585 0013547 203.8248 156.2346 14.91791748375150
Epoch (UTC): 26 March 2017 21:34:42
Eccentricity: 0.0013547
inclination: 82.5011°
perigee height: 583 km
apogee height: 602 km
right ascension of ascending node: 324.7585°
argument of perigee: 203.8248°
revolutions per day: 14.91791748
mean anomaly at epoch: 156.2346°
orbit number at epoch: 37515

The dashed part of the orbit path shows where the satellite is in the earth's shadow,  

DLR